Location: Krasnoyarskiy Pitomnik
(51.1333°N, 71.6167°E)
Time: 15:26:27
(UTC+00:00)

SME Rocket - Pass Details

Date: 22 October 2021
Orbit: 550 x 2651 km, 99.9° (Epoch: 26 November)

Event Time Altitude Azimuth Distance (km) Brightness Sun altitude
Rises 23:01:11 0° 164° (SSE) 3,971 7.2 -27.0°
Reaches altitude 10° 23:04:10 10° 166° (SSE) 2,731 6.3 -26.5°
Enters shadow 23:08:47 53° 180° (S) 951 3.8 -25.8°
